Regional Weather Roundup
Issued by NWS

Home | Current Version | Previous Version | Graphics & Text | Print | Product List | Glossary On
Versions: 1 2 3 4 5 6 7 8 9 10 11 12 13 14 15 16 17 18 19 20 21 22 23 24 25 26 27 28 29 30 31 32 33 34 35 36 37 38 39 40 41 42 43 44 45 46 47 48 49 50
000
ASUS43 KBIS 242031
RWRND
NORTH DAKOTA REGIONAL WEATHER ROUNDUP
NATIONAL WEATHER SERVICE EASTERN NORTH DAKOTA/GRAND FORKS ND
300 PM CDT WED MAY 24 2017

  NOTE: "FAIR" INDICATES FEW OR NO CLOUDS BELOW 12,000 FEET WITH NO
  SIGNIFICANT WEATHER AND/OR OBSTRUCTIONS TO VISIBILITY.

NDZ001>003-009>011-017-242100-
...NORTHWEST NORTH DAKOTA...

CITY           SKY/WX    TMP DP  RH WIND       PRES   REMARKS
WILLISTON      PTSUNNY   78  38  23 SE24G32   29.33F
MINOT          FAIR      71  34  25 SE23G36   29.46F
MINOT AFB      FAIR      70  36  28 S26G39    29.45F
$$

NDZ018>021-031>035-040>046-242100-
...SOUTHWEST NORTH DAKOTA...

CITY           SKY/WX    TMP DP  RH WIND       PRES   REMARKS
BISMARCK       FAIR      69  41  36 S22G33    29.55F
DICKINSON      FAIR      70  33  25 S29G40    29.41F
GARRISON         N/A     68  37  32 S25G32    29.48F
HETTINGER      FAIR      71  36  27 S28G35    29.48F
$$

NDZ004>008-012>016-024-026-027-054-242100-
...NORTHEAST NORTH DAKOTA...

CITY           SKY/WX    TMP DP  RH WIND       PRES   REMARKS
GRAND FORKS    FAIR      68  41  37 SE18G28   29.66F
GRAND FORKS AF FAIR      66  40  38 SE21G26   29.65F
DEVILS LAKE    FAIR      64  42  44 S22G29    29.62F
$$

NDZ022-023-025-028>030-036>039-047>053-242100-
...SOUTHEAST NORTH DAKOTA...

CITY           SKY/WX    TMP DP  RH WIND       PRES   REMARKS
JAMESTOWN      PTSUNNY   63  43  48 S20G30    29.64F
FARGO          CLOUDY    64  42  44 S17G25    29.69F
WAHPETON       CLOUDY    61  41  48 SE14G20   29.70F
$$




USA.gov is the U.S. government's official web portal to all federal, state and local government web resources and services.